CW1675 Weather Reports


Display with metric or nautical units.
time (UTC)temp
F
wind
direction
speed
MPH
gust
MPH
rain 1hr
in
rain 24hr
in
rain mn
in
humidity
%
barometer
mb
20260905043909 59 267 1.0 5.0 0.00 0.25 0.00 95 1020.5
20260905042912 59 209 2.0 2.0 0.00 0.25 0.00 95 1020.5
20260905042409 59 291 2.0 5.0 0.00 0.25 0.00 95 1020.4
20260905041409 59 240 1.0 3.0 0.00 0.25 0.00 95 1020.4
20260905034909 60 227 1.0 2.0 0.00 0.25 0.00 95 1020.2
20260905033910 60 279 1.0 3.0 0.00 0.25 0.00 95 1020.2
20260905032911 60 276 2.0 5.0 0.00 0.25 0.00 95 1020.2
20260905032410 60 352 2.0 2.0 0.00 0.25 0.00 95 1020.1
20260905030410 60 237 2.0 5.0 0.00 0.25 0.00 95 1020.2
20260905025410 60 209 1.0 2.0 0.00 0.25 0.00 95 1020.2
20260905024409 60 228 1.0 5.0 0.00 0.25 0.00 95 1020.2
20260905022911 61 268 2.0 3.0 0.00 0.25 0.00 94 1019.9
20260905021910 61 313 2.0 5.0 0.00 0.25 0.00 94 1019.9
20260905020409 61 277 2.0 6.0 0.00 0.25 0.00 94 1019.7
20260905014409 62 296 2.0 6.0 0.00 0.25 0.00 95 1019.6
20260905010409 62 290 1.0 3.0 0.00 0.25 0.00 95 1019.5
20260905005911 62 224 2.0 3.0 0.00 0.25 0.00 94 1019.5
20260905002911 62 295 1.0 5.0 0.00 0.25 0.00 95 1019.3
20260904234409 62 62 0.0 0.0 0.00 0.27 0.00 92 1019.2
20260904231909 63 268 2.0 3.0 0.00 0.28 0.00 90 1019.3
20260904230410 63 330 2.0 5.0 0.00 0.28 0.00 91 1019.1
20260904225409 63 5 2.0 2.0 0.00 0.28 0.00 93 1019.0
20260904224409 64 291 2.0 5.0 0.00 0.28 0.00 93 1019.0
20260904221411 64 244 2.0 6.0 0.00 0.28 0.00 93 1018.7
20260904220910 64 260 4.0 9.0 0.00 0.28 0.00 93 1018.5
20260904220410 64 240 5.0 6.0 0.00 0.28 0.00 93 1018.5
20260904215911 64 283 5.0 9.0 0.00 0.28 0.00 93 1018.5
20260904214909 64 254 5.0 8.0 0.00 0.28 0.28 94 1018.5
20260904213910 64 237 3.0 9.0 0.00 0.28 0.28 94 1018.3
20260904213409 64 238 2.0 9.0 0.00 0.28 0.28 94 1018.3
20260904212911 64 229 2.0 7.0 0.00 0.28 0.28 94 1018.3
20260904211410 64 301 2.0 5.0 0.00 0.28 0.28 94 1018.2
20260904210910 64 342 2.0 7.0 0.00 0.28 0.28 94 1018.2
20260904210410 64 250 2.0 9.0 0.00 0.28 0.28 94 1018.2
20260904205911 64 306 2.0 6.0 0.00 0.28 0.28 94 1018.2
20260904205410 64 271 2.0 5.0 0.00 0.28 0.28 95 1018.1
20260904204909 64 240 2.0 7.0 0.00 0.28 0.28 94 1018.1
20260904204410 64 323 2.0 6.0 0.00 0.28 0.28 95 1018.1
20260904202908 64 235 4.0 6.0 0.00 0.28 0.28 95 1017.9
20260904202409 64 236 5.0 7.0 0.00 0.28 0.28 95 1017.8
20260904201909 64 232 3.0 6.0 0.00 0.28 0.28 95 1017.8
20260904201409 64 241 3.0 9.0 0.00 0.28 0.28 95 1017.8
20260904200909 64 241 2.0 7.0 0.00 0.28 0.28 95 1018.0
20260904195913 64 264 2.0 5.0 0.00 0.28 0.28 96 1018.0
20260904195409 64 267 2.0 6.0 0.00 0.28 0.28 96 1017.7
20260904193909 64 231 2.0 5.0 0.00 0.28 0.28 96 1017.7
20260904193408 64 268 2.0 7.0 0.00 0.28 0.28 96 1017.7
20260904192909 64 261 2.0 6.0 0.00 0.28 0.28 96 1017.7
20260904192409 64 221 2.0 5.0 0.00 0.28 0.28 96 1017.5
20260904191408 64 311 2.0 6.0 0.00 0.28 0.28 96 1017.5
20260904190909 64 266 1.0 9.0 0.00 0.28 0.28 96 1017.2
20260904190409 64 319 0.0 5.0 0.00 0.28 0.28 96 1017.2
20260904185408 64 326 2.0 1.0 0.00 0.28 0.28 96 1017.1
20260904184909 64 233 2.0 3.0 0.01 0.28 0.28 96 1017.1
20260904184410 64 232 2.0 5.0 0.01 0.28 0.28 95 1017.1
20260904183909 64 261 2.0 6.0 0.02 0.28 0.28 95 1016.9
20260904183409 64 259 2.0 5.0 0.03 0.28 0.28 95 1016.9
20260904181409 64 222 2.0 6.0 0.07 0.28 0.28 95 1016.6
20260904180909 64 252 3.0 5.0 0.09 0.28 0.28 95 1016.5
20260904180409 64 240 3.0 6.0 0.12 0.28 0.28 95 1016.5
20260904175909 64 218 3.0 6.0 0.15 0.28 0.28 95 1016.5
20260904175409 64 261 3.0 7.0 0.18 0.28 0.28 94 1016.5
20260904174409 64 246 5.0 6.0 0.20 0.27 0.27 94 1016.5
20260904173409 64 240 3.0 9.0 0.20 0.25 0.25 93 1016.5
20260904172409 64 263 5.0 7.0 0.21 0.24 0.24 93 1016.3
20260904165409 66 305 7.0 10.0 0.07 0.10 0.10 90 1015.8
20260904164911 67 295 6.0 14.0 0.05 0.08 0.08 88 1015.8
20260904162942 72 313 8.0 24.0 0.00 0.03 0.03 74 1015.6
20260904162415 73 238 8.0 21.0 0.00 0.03 0.03 73 1015.0
20260904161927 73 228 9.0 16.0 0.00 0.03 0.03 73 1015.0
20260904160912 73 224 10.0 18.0 0.00 0.03 0.03 73 1015.0
20260904154910 73 253 15.0 22.0 0.00 0.03 0.03 73 1015.2
20260904152409 74 253 13.0 24.0 0.00 0.03 0.03 72 1015.0
20260904150409 73 260 8.0 31.0 0.00 0.03 0.03 72 1015.3
20260904145408 73 246 9.0 15.0 0.00 0.03 0.03 74 1015.4
20260904143908 73 248 10.0 29.0 0.00 0.03 0.03 73 1015.4
20260904142409 74 274 10.0 26.0 0.00 0.03 0.03 72 1015.2
20260904141909 74 303 10.0 29.0 0.00 0.03 0.03 70 1015.2
20260904141410 74 289 10.0 21.0 0.00 0.03 0.03 70 1015.2
20260904140910 74 247 10.0 26.0 0.00 0.03 0.03 69 1015.2
20260904140408 74 308 10.0 23.0 0.00 0.03 0.03 69 1015.2
20260904134909 75 277 15.0 29.0 0.00 0.03 0.03 67 1015.0
20260904133408 76 258 12.0 29.0 0.00 0.03 0.03 67 1014.9
20260904132910 76 219 12.0 33.0 0.00 0.03 0.03 67 1014.9
20260904132409 76 252 12.0 29.0 0.00 0.03 0.03 67 1014.9
20260904131909 76 272 10.0 25.0 0.00 0.03 0.03 67 1014.9
20260904130411 76 271 10.0 16.0 0.00 0.03 0.03 67 1014.9
20260904125911 76 298 9.0 26.0 0.00 0.03 0.03 67 1014.9
20260904125409 76 249 8.0 20.0 0.00 0.03 0.03 68 1014.9
20260904123409 75 244 9.0 24.0 0.00 0.03 0.03 70 1014.9
20260904122409 75 243 12.0 16.0 0.00 0.03 0.03 69 1015.1
20260904120908 75 243 12.0 15.0 0.00 0.03 0.03 71 1015.0
20260904120409 75 245 13.0 26.0 0.00 0.03 0.03 71 1015.0
20260904114409 75 230 9.0 38.0 0.00 0.03 0.03 71 1015.1
20260904113909 75 258 9.0 23.0 0.00 0.03 0.03 71 1014.9
20260904112910 75 243 9.0 24.0 0.00 0.03 0.03 73 1014.9
20260904110909 75 246 10.0 18.0 0.00 0.03 0.03 73 1015.2
20260904110408 75 245 10.0 17.0 0.00 0.03 0.03 74 1015.2
20260904105909 74 253 12.0 18.0 0.00 0.03 0.03 74 1015.2
20260904104909 75 257 13.0 21.0 0.00 0.03 0.03 73 1015.1
20260904104410 75 236 13.0 28.0 0.00 0.03 0.03 75 1015.1
20260904103909 75 243 9.0 32.0 0.00 0.03 0.03 73 1015.4
20260904103410 74 219 8.0 21.0 0.00 0.03 0.03 77 1015.4
20260904101910 73 233 10.0 18.0 0.00 0.03 0.03 78 1015.5
20260904101410 73 207 10.0 16.0 0.00 0.03 0.03 80 1015.5
20260904094908 72 234 7.0 17.0 0.00 0.03 0.03 81 1016.0
20260904094409 72 215 7.0 15.0 0.00 0.03 0.03 82 1016.0
20260904093408 71 261 7.0 18.0 0.00 0.03 0.03 82 1015.9
20260904092409 71 226 8.0 14.0 0.00 0.03 0.03 83 1016.1
20260904091908 71 229 7.0 16.0 0.00 0.03 0.03 84 1016.1
20260904091409 71 249 7.0 23.0 0.00 0.03 0.03 83 1016.1
20260904090409 71 248 7.0 17.0 0.00 0.03 0.03 83 1016.0
20260904084408 71 258 6.0 10.0 0.00 0.03 0.03 83 1015.8
20260904083408 71 232 7.0 16.0 0.00 0.03 0.03 83 1015.6
20260904082909 71 222 8.0 15.0 0.00 0.03 0.03 84 1015.6
20260904081909 71 227 8.0 17.0 0.00 0.03 0.03 83 1015.6
20260904080909 71 245 7.0 20.0 0.00 0.03 0.03 84 1015.7
20260904075911 71 238 6.0 16.0 0.00 0.03 0.03 84 1015.7
20260904074408 71 235 7.0 12.0 0.00 0.03 0.03 85 1015.8
20260904073909 71 217 7.0 12.0 0.00 0.03 0.03 85 1016.1
20260904073408 71 236 7.0 13.0 0.00 0.03 0.03 86 1016.1
20260904072408 70 216 7.0 14.0 0.00 0.03 0.03 86 1016.1
20260904071908 70 225 6.0 15.0 0.00 0.03 0.03 87 1016.1
20260904065409 70 214 7.0 15.0 0.00 0.03 0.03 87 1016.4
20260904064408 70 205 7.0 12.0 0.00 0.03 0.03 87 1016.4
20260904062408 69 191 6.0 12.0 0.00 0.03 0.03 88 1016.5
20260904061908 69 198 6.0 14.0 0.00 0.03 0.03 88 1016.5
20260904060909 69 208 5.0 10.0 0.00 0.03 0.03 88 1016.6
20260904060408 69 229 5.0 15.0 0.00 0.03 0.03 88 1016.6
20260904055911 69 210 6.0 12.0 0.00 0.03 0.03 88 1016.6
20260904053909 69 243 6.0 10.0 0.00 0.03 0.03 88 1017.0
20260904053408 69 230 6.0 9.0 0.00 0.03 0.03 88 1017.0
20260904051908 69 232 6.0 13.0 0.00 0.03 0.03 89 1017.1
20260904050408 69 240 6.0 13.0 0.00 0.03 0.03 89 1017.1
20260904045408 69 201 5.0 10.0 0.00 0.03 0.03 89 1017.2